Location: Eppenbrunn
(49.1158°N, 7.5601°E)
Time: 10:56:22
(UTC+00:00)

Abrixas rocket - Pass Details

Date: 09 April 2020
Orbit: 345 x 352 km, 48.4° (Epoch: 25 May)

Event Time Altitude Azimuth Distance (km) Brightness Sun altitude
Rises 19:58:57 0° 279° (W) 2,163 7.1 -16.5°
Reaches altitude 10° 20:01:10 10° 265° (W) 1,320 5.5 -16.8°
Maximum altitude 20:03:40 25° 207° (SSW) 766 3.5 -17.2°
Enters shadow 20:03:47 25° 203° (SSW) 767 3.4 -17.2°
